Vertical_Velocity
1 2 0 0 1 -1 -2 -2 0 -0 -2 -1 -1 1 -1 -1 0 -0 -0 -2 -3 -2 -2 -2 -1 -2 -2 -2 -0 -1 -3 -1 -2 -2 -2 -0 0 -1
1 3 2 2 1 -0 -1 -2 -0 0 -0 0 -2 -1 -2 -1 -1 -1 -2 -3 -3 -2 -1 -3 -1 -3 -2 -2 -0 -2 -0 -3 -2 -3 -2 2 -2 -5
1 3 3 2 1 -0 -1 0 -1 -0 1 -1 -0 -0 -2 -0 -1 -0 -2 -1 -3 -3 -2 -2 -0 -1 -2 -1 -1 -0 -2 -2 -1 -1 -3 -5 1 -2
2 1 2 3 1 -1 -0 -0 -0 0 1 1 0 -1 -0 -2 -0 -1 -1 -2 -1 -2 -1 -1 -4 -0 -2 -4 1 2 -3 -3 -0 -1 5 -6 -3 -2
3 -1 -1 0 -1 -0 -2 -0 -1 0 1 2 1 -0 -1 -2 -1 -2 -2 1 -2 -2 -1 -2 -0 -1 0 -0 1 -1 2 1 -4 -0 2 0 -3 -2
-0 -3 -3 1 -1 -1 -2 1 1 1 1 1 -0 0 -1 0 -1 -0 -1 -0 -2 -3 1 -0 1 -1 -1 3 -2 -3 -2 0 -1 -2 -1 -2 -4 -3
0 -1 0 1 -1 -2 -1 -0 1 2 -1 -4 -0 -2 1 -0 3 -1 -1 -1 -2 -1 -3 -1 -1 -3 -1 -1 -3 -3 -0 -3 -4 3 -1 -0 -4 -4
-1 -1 -1 0 -1 0 -1 2 2 -1 -1 -1 -1 1 0 -2 -0 -0 -2 -4 -0 -2 0 0 -1 0 -3 -3 0 1 -2 -4 -6 -1 -1 7 -2 -4
-2 -1 1 1 -1 -0 0 1 -1 -0 0 -1 -0 -1 1 3 1 -2 -0 -1 -0 -0 -0 -1 -0 -1 -1 -2 -0 -0 -2 -4 -1 -2 -2 -3 -2 -3
0 -5 -2 -2 -2 0 2 -1 -0 0 0 2 -0 -2 -1 -1 1 1 -0 -1 1 -1 -1 1 0 -3 -2 -1 -0 -2 -1 1 -3 -6 -4 3 4 6
-5 -4 -1 -0 -1 -1 1 1 -1 1 2 1 0 2 2 0 1 0 0 1 0 -0 -2 -3 -3 -0 0 -1 -0 -0 -2 -5 -5 2 -1 -7 -1 4
5 0 -2 -1 -1 -2 -2 1 -1 2 4 -1 -2 7 -0 1 0 -5 0 -1 -2 4 -4 -5 -3 1 0 -3 -1 -4 2 1 -3 -3 -5 -2 -7 6
2 -0 2 2 6 1 -2 -2 -2 3 14 -1 7 7 2 -1 -4 1 0 -1 1 -3 -3 -1 -0 -3 0 0 -4 -1 -3 3 -2 -1 -5 -12 -11 -14
2 2 -2 4 1 -1 0 3 -1 17 9 15 7 1 -2 -2 1 1 0 0 -2 -0 1 -2 -4 -0 2 -0 -3 -0 -11 -5 -3 -3 1 -2 -7 -2
5 7 5 6 8 14 1 7 29 -0 12 2 1 -0 -0 2 -2 -1 -1 -1 1 1 1 -1 -1 -2 0 1 1 -3 3 0 -4 6 7 -4 -6 2
-0 -1 -2 4 9 3 6 -4 1 1 -0 0 -3 -2 -1 -4 0 2 1 -2 -3 -1 -4 -1 -3 1 2 0 1 -0 -4 1 5 2 13 -2 -6 -10
3 3 3 2 7 2 -0 3 1 -0 2 -4 -1 -4 -5 2 0 0 -0 1 1 -1 0 2 -2 -2 -2 -7 -8 -0 -2 -1 -6 -1 5 10 -11 -7
0 -1 -0 2 -1 2 4 1 -0 -2 0 -1 1 -2 3 2 -0 -4 -1 -0 -1 3 3 -1 0 -1 -4 -2 -2 2 -5 -0 1 1 -4 2 5 -3
1 4 4 4 1 3 4 2 1 -3 2 -2 3 2 1 -1 3 1 1 -1 -2 -0 -1 0 2 -1 -1 -2 -3 2 7 -0 0 4 -0 -1 -2 -2
2 -1 0 1 -1 4 10 2 -1 0 -2 2 -1 -1 -0 5 3 1 -2 -2 1 0 1 -2 -1 -0 -3 0 4 -10 -5 0 -2 -3 3 6 7 -8
4 1 3 1 -0 6 -1 -1 3 5 3 -2 -0 2 2 0 1 -2 2 -1 0 0 0 -1 -0 1 2 2 -1 4 -6 -15 -20 -11 -2 4 -2 6
-6 -2 -3 0 5 0 6 3 2 -2 -0 1 3 1 2 -2 -1 1 -0 1 0 -3 -2 -1 -1 -3 -3 -1 0 1 3 10 -7 -23 -12 -19 -17 -7
2 -3 -2 4 4 -0 1 4 1 1 1 -4 -1 -1 -1 -2 -3 4 1 -3 -2 -3 2 0 -3 -4 2 -3 -9 2 1 -2 1 22 2 -8 -5 -9
Height
5813 5818 5823 5826 5829 5832 5834 5836 5839 5840 5841 5841 5841 5840 5839 5838 5837 5835 5832 5829 5825 5821 5817 5813 5809 5804 5798 5791 5784 5776 5768 5759 5750 5742 5733 5724 5716 5707
5807 5813 5817 5820 5823 5825 5828 5831 5832 5834 5835 5836 5835 5835 5834 5833 5831 5828 5826 5822 5819 5815 5810 5806 5801 5796 5790 5783 5775 5767 5757 5748 5738 5730 5721 5713 5705 5696
5801 5807 5810 5814 5817 5819 5822 5825 5825 5827 5828 5829 5829 5829 5828 5826 5824 5822 5819 5815 5811 5808 5804 5799 5793 5788 5782 5775 5767 5756 5747 5739 5729 5720 5712 5705 5695 5684
5795 5800 5805 5808 5810 5813 5816 5817 5819 5821 5821 5822 5823 5822 5821 5819 5817 5815 5811 5807 5804 5800 5796 5792 5786 5780 5773 5766 5756 5748 5739 5729 5721 5711 5701 5694 5683 5672
5788 5792 5797 5800 5803 5806 5808 5810 5812 5814 5815 5816 5816 5815 5814 5813 5810 5807 5804 5800 5797 5793 5789 5784 5778 5771 5763 5755 5747 5738 5728 5719 5711 5701 5692 5682 5671 5661
5780 5784 5789 5793 5795 5798 5801 5804 5806 5807 5808 5808 5808 5807 5806 5805 5802 5799 5795 5793 5789 5785 5780 5775 5769 5761 5754 5746 5737 5728 5718 5709 5701 5690 5680 5670 5661 5652
5773 5777 5781 5784 5787 5791 5794 5797 5799 5800 5800 5801 5800 5800 5798 5797 5795 5792 5788 5786 5782 5778 5773 5767 5760 5752 5744 5736 5728 5718 5709 5700 5691 5682 5671 5661 5652 5642
5765 5768 5771 5776 5780 5784 5787 5789 5791 5792 5792 5793 5792 5792 5791 5790 5787 5784 5782 5779 5776 5770 5765 5758 5750 5743 5735 5726 5717 5708 5700 5692 5683 5672 5662 5652 5641 5630
5756 5761 5763 5768 5773 5776 5778 5780 5782 5783 5784 5784 5783 5783 5783 5782 5779 5778 5776 5772 5767 5762 5757 5749 5741 5734 5726 5717 5708 5700 5691 5680 5672 5662 5652 5642 5631 5620
5748 5752 5756 5759 5764 5767 5769 5772 5774 5776 5777 5777 5777 5776 5775 5773 5772 5770 5767 5763 5759 5754 5747 5740 5732 5725 5717 5707 5699 5690 5680 5671 5662 5651 5641 5632 5622 5609
5737 5742 5747 5751 5754 5758 5761 5763 5765 5767 5768 5768 5768 5768 5767 5765 5764 5762 5759 5755 5750 5745 5738 5732 5724 5715 5707 5698 5689 5679 5670 5661 5651 5640 5630 5622 5613 5600
5729 5734 5739 5742 5745 5750 5752 5754 5756 5757 5759 5760 5759 5759 5758 5758 5757 5754 5750 5746 5740 5735 5728 5721 5713 5706 5698 5688 5680 5672 5663 5651 5640 5630 5620 5609 5600 5590
5720 5725 5731 5734 5738 5740 5742 5745 5746 5747 5750 5750 5751 5751 5749 5749 5747 5744 5739 5735 5729 5724 5719 5711 5704 5697 5688 5680 5670 5662 5653 5642 5630 5619 5606 5595 5584 5573
5712 5716 5721 5725 5729 5732 5734 5735 5735 5740 5742 5743 5742 5742 5741 5741 5739 5735 5730 5725 5720 5714 5707 5701 5694 5686 5679 5670 5662 5652 5641 5633 5623 5610 5598 5585 5572 5559
5704 5708 5712 5716 5720 5724 5725 5727 5731 5733 5734 5733 5734 5734 5733 5732 5730 5725 5721 5715 5710 5704 5698 5691 5685 5678 5670 5662 5652 5644 5633 5622 5613 5603 5587 5574 5563 5552
5694 5698 5701 5707 5710 5713 5716 5718 5722 5723 5724 5725 5725 5725 5724 5722 5719 5714 5710 5706 5700 5695 5689 5682 5675 5667 5659 5653 5645 5636 5628 5619 5607 5595 5580 5562 5548 5537
5686 5690 5693 5697 5701 5703 5706 5709 5712 5715 5717 5718 5717 5716 5715 5712 5708 5705 5701 5696 5690 5684 5679 5672 5665 5658 5651 5643 5636 5628 5618 5608 5597 5587 5574 5555 5536 5525
5679 5683 5686 5690 5693 5695 5699 5703 5705 5707 5708 5707 5707 5707 5704 5701 5698 5695 5690 5685 5680 5675 5670 5663 5656 5648 5641 5634 5627 5619 5610 5601 5588 5575 5560 5547 5530 5514
5673 5676 5679 5683 5686 5690 5693 5696 5697 5697 5697 5698 5697 5695 5693 5691 5688 5685 5680 5676 5671 5667 5660 5654 5647 5639 5631 5624 5617 5611 5602 5592 5581 5567 5551 5536 5521 5507
5668 5672 5675 5678 5681 5683 5685 5687 5688 5689 5689 5689 5688 5685 5683 5681 5678 5674 5669 5665 5661 5657 5651 5644 5638 5631 5625 5616 5605 5595 5589 5580 5568 5556 5544 5528 5512 5494
5663 5666 5668 5671 5674 5676 5678 5679 5679 5680 5680 5679 5677 5675 5673 5671 5667 5663 5659 5656 5651 5647 5641 5635 5629 5623 5616 5607 5598 5587 5572 5561 5551 5541 5529 5519 5506 5491
5656 5658 5660 5664 5666 5668 5670 5670 5670 5670 5670 5669 5667 5665 5663 5661 5658 5654 5650 5646 5641 5637 5632 5626 5621 5614 5607 5598 5590 5580 5568 5552 5532 5518 5508 5497 5488 5483
5648 5651 5654 5656 5658 5660 5660 5660 5660 5660 5659 5658 5657 5656 5653 5650 5647 5643 5640 5636 5631 5627 5622 5617 5611 5605 5598 5589 5581 5571 5559 5545 5531 5514 5493 5481 5473 5468